Theta_e
278 279 280 282 283 283 283 283 284 284 285 284 284 283 283 283 282 282 282 282 282 282 281 281 281 281 281 279 279 279 279 278
277 278 278 280 280 281 281 281 282 282 281 281 280 281 281 280 280 280 280 280 279 279 279 279 279 279 279 278 278 277 277 278
276 276 276 277 278 279 279 280 281 281 280 279 279 279 278 278 278 279 278 279 279 279 278 278 278 278 277 276 276 276 275 276
274 275 275 276 276 277 278 279 280 280 279 279 278 278 278 278 278 278 278 277 277 277 276 276 276 276 276 276 275 274 273 273
273 274 275 275 276 276 277 279 279 278 278 277 278 278 278 278 278 278 278 278 277 276 275 275 274 274 273 273 271 271 272 272
271 273 274 274 275 276 277 278 278 278 278 277 278 278 277 277 277 277 277 277 278 277 277 277 275 274 272 272 271 271 270 271
271 272 273 274 274 276 276 276 277 276 276 276 276 277 276 276 276 276 276 276 276 276 276 276 277 279 277 273 271 271 270 270
270 271 273 274 275 274 275 276 275 274 275 275 275 274 274 275 274 274 273 274 274 276 276 276 277 279 277 276 273 272 270 269
270 271 272 273 273 274 274 273 273 272 273 273 273 272 273 273 272 272 272 272 272 273 276 276 277 278 277 275 272 271 270 268
265 265 270 269 272 272 271 271 271 270 270 270 271 271 271 271 271 271 271 271 272 273 273 274 275 278 276 274 271 270 269 268
268 270 270 269 271 271 270 270 269 270 270 271 271 270 270 270 271 272 272 272 272 272 272 272 273 277 277 273 271 268 267 267
267 266 267 270 270 269 268 268 270 271 271 271 271 270 271 271 271 270 270 270 270 270 271 270 272 273 276 275 271 268 266 265
267 267 268 270 269 268 267 268 269 269 269 268 269 271 270 269 269 269 268 268 267 267 268 270 270 274 274 273 273 271 265 264
267 267 267 268 268 266 266 267 266 265 264 266 267 269 270 268 267 268 267 267 267 266 265 266 268 269 272 272 271 271 266 266
266 265 265 265 267 266 267 265 260 263 264 265 266 267 267 269 269 268 266 265 266 265 263 263 266 268 268 268 265 268 266 262
265 265 264 264 263 262 264 262 264 264 264 264 265 264 264 267 266 267 269 268 263 262 261 259 263 269 272 271 269 268 268 256
264 263 262 261 259 258 257 260 262 264 264 263 263 262 263 262 261 270 271 272 272 272 269 266 271 273 273 273 272 270 269 249
263 262 260 259 258 255 255 258 258 261 261 261 261 260 258 258 257 256 260 268 270 271 271 271 272 272 272 272 271 267 261 247
261 259 258 257 257 254 253 258 257 257 259 259 257 257 255 255 255 254 254 253 256 263 268 269 270 270 271 270 264 256 254 245
259 258 257 256 257 252 253 258 257 259 257 255 254 253 255 255 254 253 253 253 252 254 261 259 267 268 268 267 250 248 251 252
Wind_Speed
16 16 15 15 15 18 18 16 13 12 15 17 19 20 18 18 21 20 18 18 19 19 19 21 19 17 16 16 16 15 11 10
14 14 15 14 15 16 17 15 12 11 18 21 21 21 19 20 18 19 20 19 20 19 19 19 18 14 16 17 17 18 15 13
14 14 15 15 15 16 16 11 8 12 20 24 24 21 21 20 20 19 21 18 18 18 19 18 17 16 18 18 16 16 14 13
14 14 14 15 17 15 14 10 10 12 22 24 23 21 21 20 21 20 21 19 20 18 18 17 16 17 15 15 15 14 12 11
14 15 16 16 17 15 12 10 10 15 22 23 22 21 20 18 19 20 19 19 17 17 17 17 15 15 13 13 13 11 10 11
15 15 16 16 16 11 10 9 12 20 20 22 20 20 20 19 20 19 19 17 14 16 15 13 13 9 12 11 9 10 11 9
15 16 18 15 9 9 11 11 13 19 21 19 18 19 18 17 17 17 17 17 14 15 14 14 11 23 22 12 10 10 11 10
16 15 10 8 9 9 10 13 17 19 18 17 17 17 15 15 16 17 16 13 13 14 15 14 13 21 22 19 10 9 9 11
10 9 9 9 9 10 13 15 17 17 16 16 14 15 14 16 15 13 11 12 11 13 13 14 15 22 20 16 10 9 10 11
4 3 7 7 7 10 14 15 16 16 14 12 11 12 12 13 11 10 11 12 11 11 12 13 14 24 19 13 9 10 10 10
6 5 9 9 8 12 14 14 14 12 11 10 10 11 12 11 10 8 9 10 10 12 11 11 11 20 21 15 8 7 6 7
7 6 6 7 8 14 13 13 9 9 10 9 9 10 9 9 9 8 9 8 8 9 10 12 10 11 20 21 9 7 6 7
6 7 6 8 8 10 12 7 7 7 8 8 7 7 7 8 7 8 7 6 6 7 7 6 8 15 16 14 15 13 6 7
5 6 6 6 6 9 4 5 5 6 6 7 7 7 6 8 8 7 7 7 6 5 4 4 5 3 8 14 13 13 6 6
6 5 5 5 6 4 5 4 4 6 5 4 6 7 8 6 6 5 5 5 5 2 2 2 4 3 2 1 2 8 4 8
5 4 4 4 4 3 3 3 6 5 5 5 5 5 4 4 3 4 1 4 3 2 2 1 4 7 13 13 8 7 10 4
5 6 5 4 3 2 1 4 5 6 4 3 4 3 3 3 4 8 7 8 10 10 5 0 10 15 16 16 17 17 19 4
11 8 7 6 5 3 1 4 4 6 4 3 3 3 2 2 2 1 4 3 9 12 11 12 14 15 15 15 16 16 13 3
8 7 7 7 7 5 4 6 6 5 6 4 4 3 3 2 2 2 2 2 3 6 11 13 15 17 18 20 14 8 8 2
8 8 8 8 8 5 5 7 7 6 4 4 3 3 3 2 3 3 2 2 2 4 7 8 16 17 15 18 2 3 6 6
Wind_Direction
10 13 16 24 27 28 29 29 31 54 68 77 73 70 72 75 72 73 74 70 71 72 71 68 67 68 70 75 73 75 68 60
12 15 20 24 29 33 34 26 35 67 78 78 72 70 70 71 71 74 74 71 72 71 71 73 72 72 76 74 77 73 69 63
18 25 24 23 30 33 34 25 40 67 81 78 79 77 74 74 73 73 75 68 72 71 73 74 73 68 72 73 73 72 68 66
22 29 31 29 32 30 26 22 46 69 78 76 76 76 74 76 76 71 73 67 66 67 69 70 71 73 65 74 75 76 71 66
30 29 33 33 33 26 23 33 57 71 70 76 74 75 74 72 76 73 73 73 75 70 71 70 68 71 75 72 68 70 70 65
33 28 35 33 27 27 37 49 60 68 73 73 77 76 76 73 72 76 73 74 74 78 74 80 79 75 69 71 72 67 65 55
35 35 34 29 26 42 57 67 71 70 69 69 71 71 70 73 74 73 71 70 66 68 72 71 71 75 76 75 73 64 58 52
31 34 34 43 59 61 58 62 62 63 62 65 66 72 68 70 68 61 63 68 65 67 68 63 61 65 66 62 62 66 58 55
24 17 18 28 38 52 56 58 60 60 58 61 63 66 63 63 66 68 69 66 62 58 61 65 59 54 55 61 61 56 55 47
351 342 12 15 37 60 60 61 60 58 55 53 59 69 69 68 68 67 69 64 60 58 55 58 55 50 50 48 48 48 41 37
12 21 37 18 46 65 62 63 59 58 60 54 57 64 67 65 63 70 72 70 60 56 48 52 43 43 41 43 38 38 34 26
42 42 27 38 54 63 61 56 58 58 61 64 64 65 67 70 59 66 75 77 65 63 52 43 31 26 38 35 24 33 22 17
60 46 33 42 68 73 68 49 56 66 67 58 52 66 60 73 69 55 54 70 71 55 53 44 18 32 28 29 29 37 29 15
84 74 48 51 68 85 62 66 66 70 57 54 54 59 72 69 59 58 42 48 54 57 35 17 5 289 30 27 26 23 45 16
109 93 82 53 74 80 101 92 88 86 81 75 73 63 54 57 56 64 60 44 44 54 36 297 272 283 292 40 15 16 25 21
130 128 117 104 93 56 104 134 105 87 73 71 72 69 63 79 97 54 7 119 160 173 168 294 347 355 5 4 359 5 350 31
150 146 162 155 158 141 81 126 120 100 86 80 84 68 64 51 22 38 73 63 50 31 39 284 356 358 355 354 352 359 360 38
175 170 167 170 169 216 179 130 107 114 108 89 89 82 104 98 106 72 328 18 36 23 17 5 1 349 347 344 351 353 17 31
163 170 175 173 188 198 172 131 126 122 133 142 145 147 157 156 150 147 77 353 318 352 2 4 352 349 348 348 1 349 357 25
168 182 181 187 202 190 172 149 152 148 150 147 149 161 130 104 72 68 45 358 305 333 350 355 346 342 344 346 62 307 304 304